Location: Clanezzo
(45.7500°N, 9.6000°E)
Time: 12:46:57
(UTC+00:00)

USA 308 - Pass Details

Date: 02 October 2021
Orbit: 566 x 573 km, 54.0° (Epoch: 23 September)

Event Time Altitude Azimuth Distance (km) Brightness Sun altitude
Rises 17:51:12 0° 303° (WNW) 2,771 7.6 -9.8°
Reaches altitude 10° 17:53:27 10° 304° (NW) 1,872 6.6 -10.2°
Maximum altitude 17:57:43 84° 34° (NNE) 577 2.9 -10.9°
Enters shadow 18:01:20 14° 122° (ESE) 1,617 4.7 -11.6°
